Date String (YYYY-MM-DD hh:mm:ss) UTC,Instrument flags,Ambient pressure (hPa),Sample flow (lpm),Bypass flow (lpm),Sample temperature (°C),Ambient temperature (°C),ASC tube jacket temperature (°C),LED temperature (°C),Box temperature (°C),Sample RH (%),Span deviation,Mass concentration (μg/m³),Mass concentration (μg/m³),Mass concentration (μg/m³)
DateTimeUTC,F1_M11,P_M11,Q1_M11,Q2_M11,T1_M11,T2_M11,T3_M11,T4_M11,T5_M11,U1_M11,ZSPAN_M11,X0_M11,X2_M11,X1_M11
2021-10-18 14:00:00,,0822.2,5.01,0.00,29.5,28.5,00.0,38.7,31.2,10.2,0000.0,0007.88,0002.90,0002.07
2021-10-18 14:01:00,,0822.2,4.98,0.00,29.5,28.5,00.0,38.7,31.2,10.1,0000.0,0007.57,0002.90,0002.08
2021-10-18 14:02:00,,0822.1,5.00,0.00,29.5,28.5,00.0,38.7,31.3,10.1,0000.0,0007.14,0002.98,0002.09
2021-10-18 14:03:00,,0822.1,5.00,0.00,29.5,28.5,00.0,38.7,31.3,10.1,0000.0,0007.83,0003.03,0002.11
2021-10-18 14:04:00,,0822.1,5.00,0.00,29.5,28.5,00.0,38.7,31.2,10.1,0000.0,0007.92,0003.03,0002.12
2021-10-18 14:05:00,,0822.0,4.99,0.00,29.5,28.5,00.0,38.7,31.2,10.1,0000.0,0008.55,0003.03,0002.15
2021-10-18 14:06:00,,0821.8,5.00,0.00,29.5,28.5,00.0,38.7,31.2,10.1,0000.0,0009.16,0003.14,0002.19
2021-10-18 14:07:00,,0822.2,5.01,0.00,29.5,28.5,00.0,38.7,31.2,10.1,0000.0,0010.01,0003.18,0002.23
2021-10-18 14:08:00,,0822.1,4.99,0.00,29.5,28.5,00.0,38.7,31.2,10.2,0000.0,0010.20,0003.18,0002.25
2021-10-18 14:09:00,,0821.9,5.00,0.00,29.5,28.5,00.0,38.7,31.2,10.3,0000.0,0010.91,0003.20,0002.26
2021-10-18 14:10:00,,0822.1,5.01,0.00,29.5,28.5,00.0,38.7,31.2,10.6,0000.0,0011.59,0003.24,0002.27
2021-10-18 14:11:00,,0822.1,5.00,0.00,29.5,28.5,00.0,38.6,31.2,10.4,0000.0,0011.53,0003.30,0002.31
2021-10-18 14:12:00,,0822.2,5.00,0.00,29.5,28.5,00.0,38.6,31.2,10.3,0000.0,0011.72,0003.29,0002.31
2021-10-18 14:13:00,,0822.3,5.00,0.00,29.5,28.5,00.0,38.6,31.2,10.3,0000.0,0011.67,0003.28,0002.30
2021-10-18 14:14:00,,0822.4,4.99,0.00,29.5,28.5,00.0,38.6,31.2,10.3,0000.0,0011.00,0003.26,0002.29
2021-10-18 14:15:00,,0822.3,5.01,0.00,29.5,28.5,00.0,38.6,31.2,10.2,0000.0,0011.21,0003.26,0002.30
2021-10-18 14:16:00,,0822.4,5.00,0.00,29.5,28.5,00.0,38.6,31.2,10.2,0000.0,0010.85,0003.28,0002.29
2021-10-18 14:17:00,,0822.4,5.01,0.00,29.5,28.5,00.0,38.7,31.2,10.2,0000.0,0009.93,0003.23,0002.26
2021-10-18 14:18:00,,0822.4,5.00,0.00,29.5,28.5,00.0,38.6,31.2,10.2,0000.0,0008.87,0003.21,0002.24
2021-10-18 14:19:00,,0822.4,5.01,0.00,29.5,28.5,00.0,38.6,31.2,10.3,0000.0,0008.68,0003.23,0002.23
2021-10-18 14:20:00,,0822.3,4.99,0.00,29.5,28.5,00.0,38.6,31.2,10.3,0000.0,0007.88,0003.20,0002.20
2021-10-18 14:21:00,,0822.3,5.00,0.00,29.5,28.5,00.0,38.6,31.2,10.3,0000.0,0006.96,0003.20,0002.19
2021-10-18 14:22:00,,0822.3,5.01,0.00,29.5,28.5,00.0,38.6,31.2,10.3,0000.0,0006.60,0003.17,0002.15
2021-10-18 14:23:00,,0822.3,5.00,0.00,29.5,28.5,00.0,38.6,31.2,10.3,0000.0,0006.25,0003.17,0002.14
2021-10-18 14:24:00,,0822.3,4.99,0.00,29.5,28.5,00.0,38.6,31.2,10.3,0000.0,0006.22,0003.16,0002.13
2021-10-18 14:25:00,,0822.3,5.01,0.00,29.5,28.5,00.0,38.6,31.2,10.3,0000.0,0006.15,0003.14,0002.14
2021-10-18 14:26:00,,0822.3,4.98,0.00,29.5,28.6,00.0,38.6,31.2,10.3,0000.0,0005.60,0003.13,0002.14
2021-10-18 14:27:00,,0822.3,5.00,0.00,29.5,28.6,00.0,38.6,31.2,10.3,0000.0,0005.17,0003.12,0002.14
2021-10-18 14:28:00,,0822.4,5.00,0.00,29.5,28.6,00.0,38.6,31.2,10.3,0000.0,0005.10,0003.09,0002.16
2021-10-18 14:29:00,,0822.3,5.00,0.00,29.5,28.6,00.0,38.6,31.2,10.5,0000.0,0005.08,0003.09,0002.17
2021-10-18 14:30:00,,0822.4,4.99,0.00,29.5,28.6,00.0,38.6,31.2,10.4,0000.0,0005.09,0003.06,0002.17
2021-10-18 14:31:00,,0822.4,5.00,0.00,29.5,28.6,00.0,38.6,31.3,10.7,0000.0,0005.16,0003.07,0002.19
2021-10-18 14:32:00,,0822.4,4.99,0.00,29.5,28.6,00.0,38.6,31.2,10.9,0000.0,0005.02,0003.01,0002.19
2021-10-18 14:33:00,,0822.4,5.00,0.00,29.5,28.6,00.0,38.6,31.3,10.7,0000.0,0005.67,0003.07,0002.23
2021-10-18 14:34:00,,0822.4,5.00,0.00,29.5,28.6,00.0,38.6,31.3,10.8,0000.0,0006.53,0003.11,0002.24
2021-10-18 14:35:00,,0822.3,5.00,0.00,29.5,28.6,00.0,38.6,31.2,10.7,0000.0,0006.86,0003.11,0002.23
2021-10-18 14:36:00,,0822.4,5.00,0.00,29.6,28.6,00.0,38.6,31.3,10.5,0000.0,0007.58,0003.14,0002.23
2021-10-18 14:37:00,,0822.4,5.00,0.00,29.6,28.6,00.0,38.7,31.3,10.6,0000.0,0007.70,0003.14,0002.22
2021-10-18 14:38:00,,0822.4,4.99,0.00,29.6,28.6,00.0,38.7,31.3,10.3,0000.0,0007.68,0003.12,0002.20
2021-10-18 14:39:00,,0822.4,5.01,0.00,29.6,28.6,00.0,38.7,31.3,10.1,0000.0,0007.73,0003.14,0002.19
2021-10-18 14:40:00,,0822.3,5.00,0.00,29.6,28.6,00.0,38.7,31.3,10.2,0000.0,0007.71,0003.13,0002.19
2021-10-18 14:41:00,,0822.4,5.01,0.00,29.6,28.7,00.0,38.7,31.3,10.2,0000.0,0007.76,0003.15,0002.20
2021-10-18 14:42:00,,0822.4,4.99,0.00,29.6,28.7,00.0,38.7,31.3,10.3,0000.0,0007.86,0003.15,0002.19
2021-10-18 14:43:00,,0822.4,5.00,0.00,29.6,28.7,00.0,38.7,31.3,10.4,0000.0,0008.13,0003.16,0002.17
2021-10-18 14:44:00,,0822.3,5.00,0.00,29.6,28.7,00.0,38.7,31.3,10.9,0000.0,0007.89,0003.13,0002.15
2021-10-18 14:45:00,,0822.3,4.99,0.00,29.6,28.7,00.0,38.7,31.3,10.9,0000.0,0007.25,0003.05,0002.12
2021-10-18 14:46:00,,0822.3,5.00,0.00,29.6,28.7,00.0,38.7,31.3,10.5,0000.0,0006.99,0003.04,0002.11
2021-10-18 14:47:00,,0822.3,5.00,0.00,29.6,28.7,00.0,38.7,31.4,10.1,0000.0,0006.52,0002.99,0002.08
2021-10-18 14:48:00,,0822.4,5.00,0.00,29.6,28.7,00.0,38.7,31.4,10.1,0000.0,0006.93,0002.98,0002.07
2021-10-18 14:49:00,,0822.4,5.00,0.00,29.6,28.8,00.0,38.7,31.4,10.1,0000.0,0007.07,0003.03,0002.08
2021-10-18 14:50:00,,0822.4,4.99,0.00,29.6,28.8,00.0,38.7,31.4,10.1,0000.0,0007.35,0003.07,0002.08
2021-10-18 14:51:00,,0822.4,5.00,0.00,29.7,28.8,00.0,38.7,31.4,10.5,0000.0,0007.41,0003.06,0002.07
2021-10-18 14:52:00,,0822.4,5.00,0.00,29.7,28.8,00.0,38.7,31.4,10.7,0000.0,0007.26,0003.04,0002.08
2021-10-18 14:53:00,,0822.4,5.00,0.00,29.7,28.8,00.0,38.7,31.4,11.1,0000.0,0007.55,0003.01,0002.07
2021-10-18 14:54:00,,0822.4,4.99,0.00,29.7,28.8,00.0,38.7,31.4,11.3,0000.0,0007.94,0003.03,0002.06
2021-10-18 14:55:00,,0822.4,5.01,0.00,29.7,28.8,00.0,38.7,31.4,11.2,0000.0,0008.25,0003.04,0002.07
2021-10-18 14:56:00,,0822.4,4.99,0.00,29.7,28.8,00.0,38.8,31.4,11.1,0000.0,0008.61,0003.11,0002.09
2021-10-18 14:57:00,,0822.4,5.01,0.00,29.7,28.7,00.0,38.8,31.4,10.8,0000.0,0008.55,0003.09,0002.10
2021-10-18 14:58:00,,0822.4,5.00,0.00,29.7,28.7,00.0,38.8,31.4,10.9,0000.0,0008.41,0003.13,0002.12
2021-10-18 14:59:00,,0822.4,4.99,0.00,29.7,28.7,00.0,38.8,31.4,10.8,0000.0,0008.17,0003.13,0002.14
